AAL1903 KILM-KRDU

Flight info

Callsign AAL1903
Flight time 0h 31m
Altitude 10000
Route BRADE BRADE6
Aircraft B738/M-SDE2E3FGHIRWXY/LB1

Departure

Time 2026-05-05 20:30
Airport Wilmington International Airport (KILM)

Arrival

Time 2026-05-05 21:02
Airport Raleigh-Durham International Airport (KRDU)
Time Latitude Longitude Altitude Speed Heading
2026-05-05 20:09 34.26641 -77.90841 30 ft 0 kts 302°
2026-05-05 20:19 34.26636 -77.90833 30 ft 2 kts 302°
2026-05-05 20:19 34.26628 -77.90817 30 ft 2 kts 303°
2026-05-05 20:20 34.26617 -77.90805 29 ft 2 kts 335°
2026-05-05 20:20 34.26602 -77.90801 29 ft 2 kts 359°
2026-05-05 20:20 34.26588 -77.90803 29 ft 2 kts 24°
2026-05-05 20:20 34.26576 -77.90812 29 ft 0 kts 45°
2026-05-05 20:21 34.26572 -77.90817 29 ft 1 kts 50°
2026-05-05 20:21 34.26571 -77.90819 29 ft 0 kts 49°
2026-05-05 20:24 34.26577 -77.90810 29 ft 2 kts 49°
2026-05-05 20:24 34.26614 -77.90758 28 ft 10 kts 50°
2026-05-05 20:24 34.26663 -77.90691 28 ft 10 kts 49°
2026-05-05 20:25 34.26718 -77.90618 29 ft 15 kts 48°
2026-05-05 20:25 34.26794 -77.90533 30 ft 4 kts 26°
2026-05-05 20:25 34.26795 -77.90533 30 ft 0 kts 25°
2026-05-05 20:25 34.26841 -77.90542 31 ft 14 kts 339°
2026-05-05 20:26 34.26940 -77.90587 31 ft 15 kts 339°
2026-05-05 20:26 34.27045 -77.90635 31 ft 16 kts 339°
2026-05-05 20:26 34.27144 -77.90709 31 ft 16 kts 325°
2026-05-05 20:26 34.27249 -77.90778 31 ft 17 kts 333°
2026-05-05 20:27 34.27359 -77.90848 31 ft 18 kts 332°
2026-05-05 20:27 34.27476 -77.90915 31 ft 18 kts 344°
2026-05-05 20:27 34.27603 -77.90945 31 ft 18 kts 349°
2026-05-05 20:27 34.27734 -77.90975 31 ft 19 kts 347°
2026-05-05 20:28 34.27870 -77.91006 31 ft 20 kts 349°
2026-05-05 20:28 34.28008 -77.91039 31 ft 20 kts 348°
2026-05-05 20:28 34.28151 -77.91074 31 ft 21 kts 345°
2026-05-05 20:28 34.28238 -77.91109 31 ft 5 kts 351°
2026-05-05 20:29 34.28273 -77.91087 31 ft 5 kts 53°
2026-05-05 20:29 34.28291 -77.91032 31 ft 10 kts 81°
2026-05-05 20:29 34.28273 -77.90985 31 ft 4 kts 154°
2026-05-05 20:29 34.28171 -77.90926 31 ft 51 kts 154°
2026-05-05 20:30 34.27423 -77.90596 32 ft 169 kts 157°
2026-05-05 20:30 34.26214 -77.90049 690 ft 194 kts 160°
2026-05-05 20:30 34.24943 -77.89477 1891 ft 205 kts 161°
2026-05-05 20:30 34.23652 -77.88916 2486 ft 197 kts 163°
2026-05-05 20:31 34.22365 -77.88410 2816 ft 200 kts 163°
2026-05-05 20:31 34.20878 -77.87815 3259 ft 244 kts 161°
2026-05-05 20:31 34.19472 -77.86821 4028 ft 242 kts 136°
2026-05-05 20:31 34.18720 -77.84918 4662 ft 268 kts 98°
2026-05-05 20:32 34.19070 -77.82716 5701 ft 278 kts 67°
2026-05-05 20:32 34.20342 -77.80922 6690 ft 292 kts 37°
2026-05-05 20:32 34.22198 -77.79989 7681 ft 299 kts 11°
2026-05-05 20:32 34.24284 -77.79941 8751 ft 304 kts 350°
2026-05-05 20:33 34.26321 -77.80500 9883 ft 309 kts 342°
2026-05-05 20:33 34.28424 -77.81242 10074 ft 316 kts 341°
2026-05-05 20:33 34.30512 -77.81983 10076 ft 305 kts 342°
2026-05-05 20:33 34.32574 -77.82674 10073 ft 307 kts 343°
2026-05-05 20:34 34.34626 -77.83321 10075 ft 307 kts 343°
2026-05-05 20:34 34.36708 -77.83955 10075 ft 307 kts 343°
2026-05-05 20:34 34.38791 -77.84582 10072 ft 306 kts 343°
2026-05-05 20:34 34.40840 -77.85197 10074 ft 307 kts 343°
2026-05-05 20:35 34.42925 -77.85825 10068 ft 306 kts 343°
2026-05-05 20:35 34.45009 -77.86455 10067 ft 307 kts 343°
2026-05-05 20:35 34.47050 -77.87072 10066 ft 305 kts 343°
2026-05-05 20:35 34.49126 -77.87701 10062 ft 306 kts 343°
2026-05-05 20:36 34.51197 -77.88328 10060 ft 306 kts 343°
2026-05-05 20:36 34.53267 -77.88956 10066 ft 306 kts 343°
2026-05-05 20:36 34.55344 -77.89587 10061 ft 307 kts 343°
2026-05-05 20:36 34.57387 -77.90206 10058 ft 306 kts 343°
2026-05-05 20:37 34.59470 -77.90839 10055 ft 307 kts 343°
2026-05-05 20:37 34.61544 -77.91470 10060 ft 306 kts 343°
2026-05-05 20:37 34.63624 -77.92101 10064 ft 308 kts 343°
2026-05-05 20:37 34.65705 -77.92735 10060 ft 306 kts 343°
2026-05-05 20:38 34.67779 -77.93366 10064 ft 307 kts 343°
2026-05-05 20:38 34.69828 -77.93990 10062 ft 306 kts 343°
2026-05-05 20:38 34.71902 -77.94622 10062 ft 306 kts 343°
2026-05-05 20:38 34.73980 -77.95256 10058 ft 306 kts 343°
2026-05-05 20:39 34.76054 -77.95888 10057 ft 307 kts 343°
2026-05-05 20:39 34.78128 -77.96520 10055 ft 307 kts 343°
2026-05-05 20:39 34.80186 -77.97149 10055 ft 306 kts 343°
2026-05-05 20:39 34.82254 -77.97781 10054 ft 306 kts 343°
2026-05-05 20:40 34.84331 -77.98417 10050 ft 306 kts 343°
2026-05-05 20:40 34.86400 -77.99049 10051 ft 305 kts 343°
2026-05-05 20:40 34.88450 -77.99675 10054 ft 307 kts 343°
2026-05-05 20:40 34.90536 -78.00314 10053 ft 306 kts 343°
2026-05-05 20:41 34.92617 -78.00950 10049 ft 306 kts 343°
2026-05-05 20:41 34.94668 -78.01578 10046 ft 308 kts 343°
2026-05-05 20:41 34.96744 -78.02216 10045 ft 307 kts 343°
2026-05-05 20:41 34.98824 -78.02855 10041 ft 307 kts 342°
2026-05-05 20:42 35.00903 -78.03494 10037 ft 307 kts 343°
2026-05-05 20:42 35.02983 -78.04133 10036 ft 307 kts 342°
2026-05-05 20:42 35.05057 -78.04768 10034 ft 307 kts 342°
2026-05-05 20:42 35.07111 -78.05399 10033 ft 307 kts 342°
2026-05-05 20:43 35.09193 -78.06041 10032 ft 308 kts 342°
2026-05-05 20:43 35.11279 -78.06683 10032 ft 307 kts 342°
2026-05-05 20:43 35.13351 -78.07320 10032 ft 306 kts 342°
2026-05-05 20:43 35.15432 -78.07961 10032 ft 308 kts 342°
2026-05-05 20:44 35.17485 -78.08594 10026 ft 307 kts 343°
2026-05-05 20:44 35.19556 -78.09230 10025 ft 306 kts 342°
2026-05-05 20:44 35.21628 -78.09869 10023 ft 306 kts 342°
2026-05-05 20:44 35.23700 -78.10508 10027 ft 307 kts 342°
2026-05-05 20:45 35.27846 -78.11790 10024 ft 307 kts 342°
2026-05-05 20:45 35.29891 -78.12424 10032 ft 306 kts 342°
2026-05-05 20:45 35.31969 -78.13066 10027 ft 307 kts 342°
2026-05-05 20:46 35.34056 -78.13711 10023 ft 307 kts 342°
2026-05-05 20:46 35.36135 -78.14354 10025 ft 308 kts 342°
2026-05-05 20:46 35.38203 -78.14996 10028 ft 308 kts 342°
2026-05-05 20:46 35.40295 -78.15644 9940 ft 306 kts 342°
2026-05-05 20:47 35.42344 -78.16279 9940 ft 308 kts 342°
2026-05-05 20:47 35.44429 -78.16927 9869 ft 307 kts 342°
2026-05-05 20:47 35.46513 -78.17574 9795 ft 308 kts 342°
2026-05-05 20:47 35.48595 -78.18220 9719 ft 307 kts 342°
2026-05-05 20:48 35.50678 -78.18867 9649 ft 308 kts 342°
2026-05-05 20:48 35.52726 -78.19503 9583 ft 306 kts 342°
2026-05-05 20:48 35.54803 -78.20150 9504 ft 306 kts 341°
2026-05-05 20:48 35.56860 -78.20791 9435 ft 306 kts 342°
2026-05-05 20:49 35.58935 -78.21438 9360 ft 305 kts 342°
2026-05-05 20:49 35.60993 -78.22079 9291 ft 306 kts 342°
2026-05-05 20:49 35.63026 -78.22771 9223 ft 303 kts 336°
2026-05-05 20:49 35.64905 -78.23923 9141 ft 297 kts 316°
2026-05-05 20:50 35.66186 -78.25790 9077 ft 284 kts 294°
2026-05-05 20:50 35.67165 -78.27929 8994 ft 289 kts 300°
2026-05-05 20:50 35.68573 -78.29684 8793 ft 293 kts 316°
2026-05-05 20:50 35.70221 -78.31182 8590 ft 296 kts 320°
2026-05-05 20:51 35.71917 -78.32633 8379 ft 295 kts 321°
2026-05-05 20:51 35.73594 -78.34058 8177 ft 294 kts 321°
2026-05-05 20:51 35.75280 -78.35495 7969 ft 292 kts 321°
2026-05-05 20:51 35.76954 -78.36928 7764 ft 293 kts 320°
2026-05-05 20:52 35.78579 -78.38315 7550 ft 276 kts 321°
2026-05-05 20:52 35.80116 -78.39620 7141 ft 265 kts 321°
2026-05-05 20:52 35.81629 -78.40913 6579 ft 262 kts 321°
2026-05-05 20:52 35.83096 -78.42182 6027 ft 259 kts 320°
2026-05-05 20:53 35.84467 -78.43568 5472 ft 254 kts 313°
2026-05-05 20:53 35.85730 -78.45065 4921 ft 252 kts 311°
2026-05-05 20:53 35.86956 -78.46568 4375 ft 250 kts 311°
2026-05-05 20:53 35.88186 -78.48083 3821 ft 249 kts 310°
2026-05-05 20:54 35.89398 -78.49572 3272 ft 247 kts 311°
2026-05-05 20:54 35.90594 -78.51038 2997 ft 234 kts 311°
2026-05-05 20:54 35.91724 -78.52412 3005 ft 224 kts 310°
2026-05-05 20:54 35.92828 -78.53750 3011 ft 223 kts 311°
2026-05-05 20:55 35.93922 -78.55090 3012 ft 218 kts 310°
2026-05-05 20:55 35.94996 -78.56392 3017 ft 211 kts 311°
2026-05-05 20:55 35.96053 -78.57657 2995 ft 213 kts 310°
2026-05-05 20:55 35.97083 -78.58863 2990 ft 195 kts 311°
2026-05-05 20:56 35.98031 -78.59946 3000 ft 176 kts 311°
2026-05-05 20:56 35.98919 -78.60975 3004 ft 177 kts 305°
2026-05-05 20:56 35.99387 -78.62328 3002 ft 170 kts 267°
2026-05-05 20:56 35.99338 -78.63766 2938 ft 162 kts 256°
2026-05-05 20:57 35.99141 -78.65108 2667 ft 160 kts 248°
2026-05-05 20:57 35.98734 -78.66359 2373 ft 156 kts 234°
2026-05-05 20:57 35.98101 -78.67407 2394 ft 150 kts 222°
2026-05-05 20:57 35.97274 -78.68252 2408 ft 158 kts 213°
2026-05-05 20:58 35.96476 -78.69055 2352 ft 140 kts 219°
2026-05-05 20:58 35.95797 -78.69902 2069 ft 136 kts 221°
2026-05-05 20:58 35.95221 -78.70680 1995 ft 108 kts 223°
2026-05-05 20:58 35.94683 -78.71353 1874 ft 118 kts 216°
2026-05-05 20:59 35.94076 -78.72024 1794 ft 116 kts 219°
2026-05-05 20:59 35.93520 -78.72726 1543 ft 113 kts 219°
2026-05-05 20:59 35.92971 -78.73383 1386 ft 109 kts 221°
2026-05-05 20:59 35.92443 -78.74034 1264 ft 121 kts 219°
2026-05-05 21:00 35.91868 -78.74747 1141 ft 118 kts 220°
2026-05-05 21:00 35.91282 -78.75465 961 ft 119 kts 220°
2026-05-05 21:00 35.90721 -78.76158 834 ft 110 kts 220°
2026-05-05 21:00 35.90158 -78.76846 671 ft 121 kts 221°
2026-05-05 21:01 35.89587 -78.77556 498 ft 114 kts 220°
2026-05-05 21:01 35.89036 -78.78233 396 ft 111 kts 222°
2026-05-05 21:01 35.88583 -78.78792 396 ft 67 kts 225°
2026-05-05 21:01 35.88304 -78.79134 386 ft 55 kts 224°
2026-05-05 21:02 35.88088 -78.79404 381 ft 29 kts 223°
2026-05-05 21:02 35.87969 -78.79481 379 ft 6 kts 167°
2026-05-05 21:02 35.87933 -78.79458 381 ft 5 kts 149°
2026-05-05 21:02 35.87901 -78.79423 384 ft 9 kts 135°
2026-05-05 21:03 35.87876 -78.79386 386 ft 0 kts 101°